contact:dominique.lefevre@mio.osupytheas.fr, maurice.libes@osupytheas.fr, didier.mallarino@osupytheas.fr
Project:EMSO http://www.emso-fr.org/EMSO-France
Depth: 2436.0 m
Title:EMSO Ligure Ouest : Data MII capteur CSTAR
DateTime,Latitude,Longitude,Instrument_Serial,Reference_Counts,Signal_Counts,Corrected_Signal_raw_counts,Calculated_Beam_c_inverse_meters,Internal_thermistor_counts
DateTime,Latitude,Longitude,Instrument_Serial,Reference_Counts,Signal_Counts,Corrected_Signal_raw_counts,Calculated_Beam_c_inverse_meters,Internal_thermistor_counts
2021-05-20T00:02:02,42.805,6.029,CST-1368DR,5444,7595,14974,0.168,551
2021-05-20T00:05:03,42.805,6.029,CST-1368DR,5444,7596,14975,0.168,550
2021-05-20T00:08:05,42.805,6.029,CST-1368DR,5444,7595,14973,0.168,551
2021-05-20T00:11:07,42.805,6.029,CST-1368DR,5444,7596,14974,0.168,551
2021-05-20T00:14:08,42.805,6.029,CST-1368DR,5444,7594,14971,0.169,551
2021-05-20T00:17:10,42.805,6.029,CST-1368DR,5444,7595,14973,0.168,551
2021-05-20T00:20:11,42.805,6.029,CST-1368DR,5444,7596,14975,0.168,551
2021-05-20T00:23:13,42.805,6.029,CST-1368DR,5444,7595,14973,0.168,551
2021-05-20T00:26:14,42.805,6.029,CST-1368DR,5444,7595,14973,0.168,551
2021-05-20T00:29:16,42.805,6.029,CST-1368DR,5444,7595,14972,0.168,551
2021-05-20T00:32:18,42.805,6.029,CST-1368DR,5444,7592,14968,0.170,551
2021-05-20T00:35:19,42.805,6.029,CST-1368DR,5444,7595,14973,0.168,551
2021-05-20T00:38:21,42.805,6.029,CST-1368DR,5444,7595,14973,0.168,551
2021-05-20T00:41:22,42.805,6.029,CST-1368DR,5444,7595,14973,0.168,551
2021-05-20T00:44:24,42.805,6.029,CST-1368DR,5444,7595,14974,0.168,551
2021-05-20T00:47:26,42.805,6.029,CST-1368DR,5444,7595,14974,0.168,551
2021-05-20T00:50:27,42.805,6.029,CST-1368DR,5444,7594,14972,0.168,551
2021-05-20T00:53:29,42.805,6.029,CST-1368DR,5444,7596,14974,0.168,551
2021-05-20T00:56:30,42.805,6.029,CST-1368DR,5444,7595,14973,0.168,551
2021-05-20T00:59:32,42.805,6.029,CST-1368DR,5444,7595,14972,0.168,551
2021-05-20T01:02:33,42.805,6.029,CST-1368DR,5444,7595,14973,0.168,551
2021-05-20T01:05:35,42.805,6.029,CST-1368DR,5444,7593,14969,0.169,551
2021-05-20T01:08:37,42.805,6.029,CST-1368DR,5444,7595,14974,0.168,551
2021-05-20T01:11:38,42.805,6.029,CST-1368DR,5444,7595,14973,0.168,551
2021-05-20T01:14:40,42.805,6.029,CST-1368DR,5444,7595,14973,0.168,551
2021-05-20T01:17:41,42.805,6.029,CST-1368DR,5444,7595,14974,0.168,551
2021-05-20T01:20:43,42.805,6.029,CST-1368DR,5444,7595,14973,0.168,551
2021-05-20T01:23:45,42.805,6.029,CST-1368DR,5444,7596,14975,0.168,551
2021-05-20T01:26:46,42.805,6.029,CST-1368DR,5444,7595,14972,0.168,551
2021-05-20T01:29:48,42.805,6.029,CST-1368DR,5444,7594,14971,0.169,551
2021-05-20T01:32:49,42.805,6.029,CST-1368DR,5444,7595,14973,0.168,551
2021-05-20T01:35:51,42.805,6.029,CST-1368DR,5444,7594,14971,0.169,551
2021-05-20T01:38:52,42.805,6.029,CST-1368DR,5444,7595,14973,0.168,551
2021-05-20T01:41:54,42.805,6.029,CST-1368DR,5444,7595,14973,0.168,551
2021-05-20T01:44:56,42.805,6.029,CST-1368DR,5444,7595,14973,0.168,551
2021-05-20T01:47:57,42.805,6.029,CST-1368DR,5444,7594,14971,0.169,551
2021-05-20T01:50:59,42.805,6.029,CST-1368DR,5444,7595,14973,0.168,551
2021-05-20T01:54:00,42.805,6.029,CST-1368DR,5444,7594,14972,0.168,551
2021-05-20T01:57:02,42.805,6.029,CST-1368DR,5444,7595,14973,0.168,551
2021-05-20T02:00:03,42.805,6.029,CST-1368DR,5444,7595,14972,0.168,551
2021-05-20T02:03:05,42.805,6.029,CST-1368DR,5444,7595,14972,0.168,551
2021-05-20T02:06:07,42.805,6.029,CST-1368DR,5444,7594,14971,0.169,551
2021-05-20T02:09:08,42.805,6.029,CST-1368DR,5444,7595,14973,0.168,551
2021-05-20T02:12:10,42.805,6.029,CST-1368DR,5444,7595,14973,0.168,551
2021-05-20T02:15:11,42.805,6.029,CST-1368DR,5444,7595,14972,0.168,551
2021-05-20T02:18:13,42.805,6.029,CST-1368DR,5444,7594,14972,0.168,551
2021-05-20T02:21:15,42.805,6.029,CST-1368DR,5444,7595,14973,0.168,551
2021-05-20T02:24:16,42.805,6.029,CST-1368DR,5444,7595,14973,0.168,551
2021-05-20T02:27:18,42.805,6.029,CST-1368DR,5444,7594,14972,0.168,551
2021-05-20T02:30:19,42.805,6.029,CST-1368DR,5444,7594,14972,0.168,551
2021-05-20T02:33:21,42.805,6.029,CST-1368DR,5444,7594,14971,0.169,551
2021-05-20T02:36:22,42.805,6.029,CST-1368DR,5444,7595,14973,0.168,551
2021-05-20T02:39:24,42.805,6.029,CST-1368DR,5444,7594,14972,0.168,551
2021-05-20T02:42:26,42.805,6.029,CST-1368DR,5444,7595,14972,0.168,551
2021-05-20T02:45:27,42.805,6.029,CST-1368DR,5444,7594,14971,0.169,551
2021-05-20T02:48:29,42.805,6.029,CST-1368DR,5444,7594,14971,0.169,551
2021-05-20T02:51:30,42.805,6.029,CST-1368DR,5444,7595,14972,0.168,551
2021-05-20T02:54:32,42.805,6.029,CST-1368DR,5444,7594,14971,0.169,551
2021-05-20T02:57:34,42.805,6.029,CST-1368DR,5444,7594,14972,0.168,551
2021-05-20T03:00:35,42.805,6.029,CST-1368DR,5444,7595,14973,0.168,551
2021-05-20T03:03:37,42.805,6.029,CST-1368DR,5444,7595,14972,0.168,551
2021-05-20T03:06:38,42.805,6.029,CST-1368DR,5444,7594,14972,0.168,551
2021-05-20T03:09:40,42.805,6.029,CST-1368DR,5444,7594,14971,0.169,550
2021-05-20T03:12:41,42.805,6.029,CST-1368DR,5444,7594,14971,0.169,551
2021-05-20T03:15:43,42.805,6.029,CST-1368DR,5444,7595,14972,0.168,551
2021-05-20T03:18:45,42.805,6.029,CST-1368DR,5444,7594,14971,0.169,551
2021-05-20T03:21:46,42.805,6.029,CST-1368DR,5444,7595,14972,0.168,551
2021-05-20T03:24:48,42.805,6.029,CST-1368DR,5444,7594,14971,0.169,551
2021-05-20T03:27:49,42.805,6.029,CST-1368DR,5444,7594,14971,0.169,551
2021-05-20T03:30:51,42.805,6.029,CST-1368DR,5444,7594,14971,0.169,551
2021-05-20T03:33:53,42.805,6.029,CST-1368DR,5444,7594,14971,0.169,551
2021-05-20T03:36:54,42.805,6.029,CST-1368DR,5444,7594,14972,0.168,551
2021-05-20T03:39:56,42.805,6.029,CST-1368DR,5444,7594,14971,0.169,551
2021-05-20T03:42:57,42.805,6.029,CST-1368DR,5443,7594,14974,0.168,551
2021-05-20T03:45:59,42.805,6.029,CST-1368DR,5444,7594,14971,0.169,551
2021-05-20T03:49:00,42.805,6.029,CST-1368DR,5444,7594,14971,0.169,551
2021-05-20T03:52:02,42.805,6.029,CST-1368DR,5443,7594,14973,0.168,551
2021-05-20T03:55:04,42.805,6.029,CST-1368DR,5443,7593,14973,0.168,551
2021-05-20T03:58:05,42.805,6.029,CST-1368DR,5444,7594,14971,0.169,550
2021-05-20T04:01:07,42.805,6.029,CST-1368DR,5443,7593,14973,0.168,551
2021-05-20T04:04:08,42.805,6.029,CST-1368DR,5443,7593,14973,0.168,551
2021-05-20T04:07:10,42.805,6.029,CST-1368DR,5443,7593,14972,0.168,551
2021-05-20T04:10:11,42.805,6.029,CST-1368DR,5443,7592,14971,0.169,551
2021-05-20T04:13:13,42.805,6.029,CST-1368DR,5443,7594,14973,0.168,551
2021-05-20T04:16:15,42.805,6.029,CST-1368DR,5443,7593,14972,0.168,551
2021-05-20T04:19:16,42.805,6.029,CST-1368DR,5443,7593,14973,0.168,551
2021-05-20T04:22:18,42.805,6.029,CST-1368DR,5443,7594,14973,0.168,550
2021-05-20T04:25:19,42.805,6.029,CST-1368DR,5443,7593,14972,0.168,551
2021-05-20T04:28:21,42.805,6.029,CST-1368DR,5443,7593,14971,0.169,551
2021-05-20T04:31:23,42.805,6.029,CST-1368DR,5443,7594,14973,0.168,551
2021-05-20T04:34:24,42.805,6.029,CST-1368DR,5443,7594,14974,0.168,551
2021-05-20T04:37:26,42.805,6.029,CST-1368DR,5443,7593,14971,0.169,551
2021-05-20T04:40:27,42.805,6.029,CST-1368DR,5443,7593,14971,0.169,551
2021-05-20T04:43:29,42.805,6.029,CST-1368DR,5443,7593,14973,0.168,551
2021-05-20T04:46:30,42.805,6.029,CST-1368DR,5443,7593,14972,0.168,551
2021-05-20T04:49:32,42.805,6.029,CST-1368DR,5443,7592,14971,0.169,551
2021-05-20T04:52:34,42.805,6.029,CST-1368DR,5443,7592,14971,0.169,551
2021-05-20T04:55:35,42.805,6.029,CST-1368DR,5443,7593,14972,0.168,551
2021-05-20T04:58:37,42.805,6.029,CST-1368DR,5443,7593,14972,0.168,551
2021-05-20T05:01:38,42.805,6.029,CST-1368DR,5443,7593,14973,0.168,551
2021-05-20T05:04:40,42.805,6.029,CST-1368DR,5443,7593,14972,0.168,551
2021-05-20T05:07:41,42.805,6.029,CST-1368DR,5443,7591,14969,0.169,551
2021-05-20T05:10:43,42.805,6.029,CST-1368DR,5443,7594,14973,0.168,551
2021-05-20T05:13:45,42.805,6.029,CST-1368DR,5443,7591,14968,0.170,551
2021-05-20T05:16:46,42.805,6.029,CST-1368DR,5443,7593,14973,0.168,551
2021-05-20T05:19:48,42.805,6.029,CST-1368DR,5443,7593,14973,0.168,551
2021-05-20T05:22:49,42.805,6.029,CST-1368DR,5443,7593,14973,0.168,551
2021-05-20T05:25:51,42.805,6.029,CST-1368DR,5443,7592,14971,0.169,551
2021-05-20T05:28:53,42.805,6.029,CST-1368DR,5443,7594,14974,0.168,551
2021-05-20T05:31:54,42.805,6.029,CST-1368DR,5443,7593,14971,0.169,551
2021-05-20T05:34:56,42.805,6.029,CST-1368DR,5443,7592,14971,0.169,551
2021-05-20T05:37:57,42.805,6.029,CST-1368DR,5443,7594,14974,0.168,551
2021-05-20T05:40:59,42.805,6.029,CST-1368DR,5443,7592,14971,0.169,551
2021-05-20T05:44:00,42.805,6.029,CST-1368DR,5443,7593,14972,0.168,551
2021-05-20T05:47:02,42.805,6.029,CST-1368DR,5443,7593,14972,0.168,551
2021-05-20T05:50:04,42.805,6.029,CST-1368DR,5443,7589,14964,0.171,551
2021-05-20T05:53:05,42.805,6.029,CST-1368DR,5443,7594,14973,0.168,551
2021-05-20T05:56:07,42.805,6.029,CST-1368DR,5443,7592,14970,0.169,551
2021-05-20T05:59:08,42.805,6.029,CST-1368DR,5443,7593,14971,0.169,551
2021-05-20T06:02:10,42.805,6.029,CST-1368DR,5443,7592,14969,0.169,551
2021-05-20T06:05:12,42.805,6.029,CST-1368DR,5443,7593,14973,0.168,551
2021-05-20T06:08:13,42.805,6.029,CST-1368DR,5443,7594,14973,0.168,551
2021-05-20T06:11:15,42.805,6.029,CST-1368DR,5443,7593,14973,0.168,551
2021-05-20T06:14:16,42.805,6.029,CST-1368DR,5443,7593,14971,0.169,551
2021-05-20T06:17:18,42.805,6.029,CST-1368DR,5443,7593,14972,0.168,551
2021-05-20T06:20:19,42.805,6.029,CST-1368DR,5443,7594,14973,0.168,551
2021-05-20T06:23:21,42.805,6.029,CST-1368DR,5443,7592,14971,0.169,551
2021-05-20T06:26:23,42.805,6.029,CST-1368DR,5443,7592,14970,0.169,551
2021-05-20T06:29:24,42.805,6.029,CST-1368DR,5443,7592,14970,0.169,551
2021-05-20T06:32:26,42.805,6.029,CST-1368DR,5443,7592,14970,0.169,551
2021-05-20T06:35:27,42.805,6.029,CST-1368DR,5443,7592,14971,0.169,551
2021-05-20T06:38:29,42.805,6.029,CST-1368DR,5443,7592,14969,0.169,551
2021-05-20T06:41:30,42.805,6.029,CST-1368DR,5443,7592,14971,0.169,551
2021-05-20T06:44:32,42.805,6.029,CST-1368DR,5443,7592,14971,0.169,551
2021-05-20T06:47:34,42.805,6.029,CST-1368DR,5443,7592,14970,0.169,551
2021-05-20T06:50:35,42.805,6.029,CST-1368DR,5443,7592,14971,0.169,551
2021-05-20T06:53:37,42.805,6.029,CST-1368DR,5443,7592,14970,0.169,551
2021-05-20T06:56:38,42.805,6.029,CST-1368DR,5443,7593,14972,0.168,551
2021-05-20T06:59:40,42.805,6.029,CST-1368DR,5443,7592,14970,0.169,551
2021-05-20T07:02:42,42.805,6.029,CST-1368DR,5443,7592,14970,0.169,551
2021-05-20T07:05:43,42.805,6.029,CST-1368DR,5443,7593,14973,0.168,551
2021-05-20T07:08:45,42.805,6.029,CST-1368DR,5443,7593,14971,0.169,551
2021-05-20T07:11:46,42.805,6.029,CST-1368DR,5443,7593,14971,0.169,551
2021-05-20T07:14:48,42.805,6.029,CST-1368DR,5443,7593,14971,0.169,551
2021-05-20T07:17:49,42.805,6.029,CST-1368DR,5443,7593,14972,0.168,551
2021-05-20T07:20:51,42.805,6.029,CST-1368DR,5443,7594,14973,0.168,551
2021-05-20T07:23:53,42.805,6.029,CST-1368DR,5443,7594,14973,0.168,551
2021-05-20T07:26:54,42.805,6.029,CST-1368DR,5443,7592,14970,0.169,551
2021-05-20T07:29:56,42.805,6.029,CST-1368DR,5443,7593,14972,0.168,551
2021-05-20T07:32:57,42.805,6.029,CST-1368DR,5443,7592,14971,0.169,551
2021-05-20T07:35:59,42.805,6.029,CST-1368DR,5443,7590,14967,0.170,551
2021-05-20T07:39:01,42.805,6.029,CST-1368DR,5443,7592,14970,0.169,551
2021-05-20T07:42:02,42.805,6.029,CST-1368DR,5443,7591,14969,0.169,551
2021-05-20T07:45:04,42.805,6.029,CST-1368DR,5443,7592,14970,0.169,551
2021-05-20T07:48:05,42.805,6.029,CST-1368DR,5443,7592,14970,0.169,551
2021-05-20T07:51:07,42.805,6.029,CST-1368DR,5443,7592,14970,0.169,550
2021-05-20T07:54:08,42.805,6.029,CST-1368DR,5443,7593,14971,0.169,551
2021-05-20T07:57:10,42.805,6.029,CST-1368DR,5443,7593,14973,0.168,551
2021-05-20T08:00:12,42.805,6.029,CST-1368DR,5443,7593,14972,0.168,551
2021-05-20T08:03:13,42.805,6.029,CST-1368DR,5443,7592,14970,0.169,551
2021-05-20T08:06:15,42.805,6.029,CST-1368DR,5443,7592,14971,0.169,551
2021-05-20T08:09:16,42.805,6.029,CST-1368DR,5443,7592,14970,0.169,551
2021-05-20T08:12:18,42.805,6.029,CST-1368DR,5443,7592,14970,0.169,551
2021-05-20T08:15:20,42.805,6.029,CST-1368DR,5443,7592,14969,0.169,551
2021-05-20T08:18:21,42.805,6.029,CST-1368DR,5443,7592,14971,0.169,551
2021-05-20T08:21:23,42.805,6.029,CST-1368DR,5443,7592,14969,0.169,551
2021-05-20T08:24:24,42.805,6.029,CST-1368DR,5443,7593,14972,0.168,551
2021-05-20T08:27:26,42.805,6.029,CST-1368DR,5443,7593,14972,0.168,551
2021-05-20T08:30:27,42.805,6.029,CST-1368DR,5443,7593,14972,0.168,551
2021-05-20T08:33:29,42.805,6.029,CST-1368DR,5443,7591,14969,0.169,551
2021-05-20T08:36:31,42.805,6.029,CST-1368DR,5443,7592,14971,0.169,551
2021-05-20T08:39:32,42.805,6.029,CST-1368DR,5443,7592,14971,0.169,551
2021-05-20T08:42:34,42.805,6.029,CST-1368DR,5443,7592,14970,0.169,551
2021-05-20T08:45:35,42.805,6.029,CST-1368DR,5443,7592,14971,0.169,551
2021-05-20T08:48:37,42.805,6.029,CST-1368DR,5443,7584,14954,0.173,551
2021-05-20T08:51:38,42.805,6.029,CST-1368DR,5443,7590,14966,0.170,551
2021-05-20T08:54:40,42.805,6.029,CST-1368DR,5443,7593,14971,0.169,551
2021-05-20T08:57:42,42.805,6.029,CST-1368DR,5443,7593,14972,0.168,551
2021-05-20T09:00:43,42.805,6.029,CST-1368DR,5443,7592,14971,0.169,551
2021-05-20T09:03:45,42.805,6.029,CST-1368DR,5443,7593,14971,0.169,551
2021-05-20T09:06:46,42.805,6.029,CST-1368DR,5443,7592,14970,0.169,551
2021-05-20T09:09:48,42.805,6.029,CST-1368DR,5443,7592,14971,0.169,551
2021-05-20T09:12:50,42.805,6.029,CST-1368DR,5443,7592,14971,0.169,551
2021-05-20T09:15:51,42.805,6.029,CST-1368DR,5443,7593,14972,0.168,551
2021-05-20T09:18:53,42.805,6.029,CST-1368DR,5443,7592,14971,0.169,551
2021-05-20T09:21:54,42.805,6.029,CST-1368DR,5443,7593,14971,0.169,551
2021-05-20T09:24:56,42.805,6.029,CST-1368DR,5443,7593,14971,0.169,551
2021-05-20T09:27:57,42.805,6.029,CST-1368DR,5443,7593,14971,0.169,551
2021-05-20T09:30:59,42.805,6.029,CST-1368DR,5443,7592,14970,0.169,551
2021-05-20T09:34:01,42.805,6.029,CST-1368DR,5443,7592,14970,0.169,551
2021-05-20T09:37:02,42.805,6.029,CST-1368DR,5443,7592,14971,0.169,551
2021-05-20T09:40:04,42.805,6.029,CST-1368DR,5443,7593,14971,0.169,551
2021-05-20T09:43:05,42.805,6.029,CST-1368DR,5443,7591,14969,0.169,551
2021-05-20T09:46:07,42.805,6.029,CST-1368DR,5443,7592,14969,0.169,551
2021-05-20T09:49:09,42.805,6.029,CST-1368DR,5443,7592,14970,0.169,551
2021-05-20T09:52:10,42.805,6.029,CST-1368DR,5443,7593,14971,0.169,551
2021-05-20T09:55:12,42.805,6.029,CST-1368DR,5443,7593,14971,0.169,551
2021-05-20T09:58:13,42.805,6.029,CST-1368DR,5443,7593,14971,0.169,551
2021-05-20T10:01:15,42.805,6.029,CST-1368DR,5443,7593,14973,0.168,551
2021-05-20T10:04:16,42.805,6.029,CST-1368DR,5443,7593,14972,0.168,551
2021-05-20T10:07:18,42.805,6.029,CST-1368DR,5443,7592,14970,0.169,551
2021-05-20T10:10:20,42.805,6.029,CST-1368DR,5443,7592,14969,0.169,551
2021-05-20T10:13:21,42.805,6.029,CST-1368DR,5443,7591,14968,0.170,550
2021-05-20T10:16:23,42.805,6.029,CST-1368DR,5443,7592,14971,0.169,551
2021-05-20T10:19:24,42.805,6.029,CST-1368DR,5443,7592,14970,0.169,551
2021-05-20T10:22:26,42.805,6.029,CST-1368DR,5443,7592,14970,0.169,551
2021-05-20T10:25:27,42.805,6.029,CST-1368DR,5443,7591,14968,0.170,551
2021-05-20T10:28:29,42.805,6.029,CST-1368DR,5443,7592,14970,0.169,551
2021-05-20T10:31:31,42.805,6.029,CST-1368DR,5443,7591,14968,0.170,551
2021-05-20T10:34:32,42.805,6.029,CST-1368DR,5443,7593,14972,0.168,551
2021-05-20T10:37:34,42.805,6.029,CST-1368DR,5443,7592,14970,0.169,551
2021-05-20T10:40:35,42.805,6.029,CST-1368DR,5443,7592,14970,0.169,551
2021-05-20T10:43:37,42.805,6.029,CST-1368DR,5443,7592,14971,0.169,551
2021-05-20T10:46:39,42.805,6.029,CST-1368DR,5443,7593,14971,0.169,551
2021-05-20T10:49:40,42.805,6.029,CST-1368DR,5443,7593,14972,0.168,551
2021-05-20T10:52:42,42.805,6.029,CST-1368DR,5443,7592,14971,0.169,551
2021-05-20T10:55:43,42.805,6.029,CST-1368DR,5443,7593,14972,0.168,551
2021-05-20T10:58:45,42.805,6.029,CST-1368DR,5443,7592,14970,0.169,551
2021-05-20T11:01:46,42.805,6.029,CST-1368DR,5443,7591,14968,0.170,551
2021-05-20T11:04:48,42.805,6.029,CST-1368DR,5443,7592,14971,0.169,551
2021-05-20T11:07:50,42.805,6.029,CST-1368DR,5443,7592,14969,0.169,551
2021-05-20T11:10:51,42.805,6.029,CST-1368DR,5443,7592,14971,0.169,551
2021-05-20T11:13:53,42.805,6.029,CST-1368DR,5443,7593,14971,0.169,551
2021-05-20T11:16:54,42.805,6.029,CST-1368DR,5443,7593,14971,0.169,551
2021-05-20T11:19:56,42.805,6.029,CST-1368DR,5443,7593,14972,0.168,551
2021-05-20T11:22:57,42.805,6.029,CST-1368DR,5443,7593,14972,0.168,551
2021-05-20T11:25:59,42.805,6.029,CST-1368DR,5443,7592,14971,0.169,551
2021-05-20T11:29:01,42.805,6.029,CST-1368DR,5443,7592,14970,0.169,551
2021-05-20T11:32:02,42.805,6.029,CST-1368DR,5443,7593,14972,0.168,551
2021-05-20T11:35:04,42.805,6.029,CST-1368DR,5443,7592,14970,0.169,551
2021-05-20T11:38:05,42.805,6.029,CST-1368DR,5443,7592,14970,0.169,551
2021-05-20T11:41:07,42.805,6.029,CST-1368DR,5443,7593,14971,0.169,551
2021-05-20T11:44:09,42.805,6.029,CST-1368DR,5443,7593,14971,0.169,551
2021-05-20T11:47:10,42.805,6.029,CST-1368DR,5443,7592,14970,0.169,551
2021-05-20T11:50:12,42.805,6.029,CST-1368DR,5443,7593,14972,0.168,551
2021-05-20T11:53:13,42.805,6.029,CST-1368DR,5443,7593,14971,0.169,551
2021-05-20T11:56:15,42.805,6.029,CST-1368DR,5443,7593,14971,0.169,551
2021-05-20T11:59:16,42.805,6.029,CST-1368DR,5443,7593,14971,0.169,551
2021-05-20T12:02:18,42.805,6.029,CST-1368DR,5443,7593,14973,0.168,551
2021-05-20T12:05:20,42.805,6.029,CST-1368DR,5443,7593,14973,0.168,551
2021-05-20T12:08:21,42.805,6.029,CST-1368DR,5443,7594,14974,0.168,551
2021-05-20T12:11:23,42.805,6.029,CST-1368DR,5443,7594,14974,0.168,551
2021-05-20T12:14:24,42.805,6.029,CST-1368DR,5443,7593,14973,0.168,550
2021-05-20T12:17:26,42.805,6.029,CST-1368DR,5443,7592,14970,0.169,551
2021-05-20T12:20:28,42.805,6.029,CST-1368DR,5443,7593,14973,0.168,551
2021-05-20T12:23:29,42.805,6.029,CST-1368DR,5443,7592,14970,0.169,551
2021-05-20T12:26:31,42.805,6.029,CST-1368DR,5443,7592,14971,0.169,551
2021-05-20T12:29:32,42.805,6.029,CST-1368DR,5443,7593,14973,0.168,551
2021-05-20T12:32:34,42.805,6.029,CST-1368DR,5443,7592,14971,0.169,551
2021-05-20T12:35:35,42.805,6.029,CST-1368DR,5443,7592,14970,0.169,551
2021-05-20T12:38:37,42.805,6.029,CST-1368DR,5443,7593,14973,0.168,551
2021-05-20T12:41:39,42.805,6.029,CST-1368DR,5443,7593,14972,0.168,551
2021-05-20T12:44:40,42.805,6.029,CST-1368DR,5443,7594,14973,0.168,551
2021-05-20T12:47:42,42.805,6.029,CST-1368DR,5443,7594,14973,0.168,551
2021-05-20T12:50:43,42.805,6.029,CST-1368DR,5443,7593,14971,0.169,551
2021-05-20T12:53:45,42.805,6.029,CST-1368DR,5443,7594,14973,0.168,551
2021-05-20T12:56:46,42.805,6.029,CST-1368DR,5443,7592,14970,0.169,551
2021-05-20T12:59:48,42.805,6.029,CST-1368DR,5443,7593,14973,0.168,551
2021-05-20T13:02:50,42.805,6.029,CST-1368DR,5443,7594,14974,0.168,551
2021-05-20T13:05:51,42.805,6.029,CST-1368DR,5443,7594,14974,0.168,551
2021-05-20T13:08:53,42.805,6.029,CST-1368DR,5442,7592,14972,0.168,551
2021-05-20T13:11:54,42.805,6.029,CST-1368DR,5443,7594,14975,0.168,551
2021-05-20T13:14:56,42.805,6.029,CST-1368DR,5443,7594,14974,0.168,551
2021-05-20T13:17:58,42.805,6.029,CST-1368DR,5443,7593,14973,0.168,551
2021-05-20T13:20:59,42.805,6.029,CST-1368DR,5443,7592,14969,0.169,551
2021-05-20T13:24:01,42.805,6.029,CST-1368DR,5443,7594,14973,0.168,551
2021-05-20T13:27:02,42.805,6.029,CST-1368DR,5443,7594,14973,0.168,551
2021-05-20T13:30:04,42.805,6.029,CST-1368DR,5443,7593,14972,0.168,551
2021-05-20T13:33:05,42.805,6.029,CST-1368DR,5443,7594,14974,0.168,551
2021-05-20T13:36:07,42.805,6.029,CST-1368DR,5442,7593,14974,0.168,551
2021-05-20T13:39:09,42.805,6.029,CST-1368DR,5443,7594,14973,0.168,551
2021-05-20T13:42:10,42.805,6.029,CST-1368DR,5443,7594,14973,0.168,551
2021-05-20T13:45:12,42.805,6.029,CST-1368DR,5443,7592,14970,0.169,551
2021-05-20T13:48:13,42.805,6.029,CST-1368DR,5443,7594,14974,0.168,551
2021-05-20T13:51:15,42.805,6.029,CST-1368DR,5443,7594,14974,0.168,551
2021-05-20T13:54:16,42.805,6.029,CST-1368DR,5443,7594,14974,0.168,551
2021-05-20T13:57:18,42.805,6.029,CST-1368DR,5443,7594,14974,0.168,551
2021-05-20T14:00:20,42.805,6.029,CST-1368DR,5443,7594,14975,0.168,551
2021-05-20T14:03:21,42.805,6.029,CST-1368DR,5443,7594,14973,0.168,551
2021-05-20T14:06:23,42.805,6.029,CST-1368DR,5443,7594,14975,0.168,551
2021-05-20T14:09:24,42.805,6.029,CST-1368DR,5443,7594,14975,0.168,551
2021-05-20T14:12:26,42.805,6.029,CST-1368DR,5443,7595,14975,0.168,551
2021-05-20T14:15:28,42.805,6.029,CST-1368DR,5443,7594,14975,0.168,551
2021-05-20T14:18:29,42.805,6.029,CST-1368DR,5443,7594,14974,0.168,551
2021-05-20T14:21:31,42.805,6.029,CST-1368DR,5443,7594,14974,0.168,551
2021-05-20T14:24:32,42.805,6.029,CST-1368DR,5442,7594,14976,0.167,551
2021-05-20T14:27:34,42.805,6.029,CST-1368DR,5443,7593,14973,0.168,551
2021-05-20T14:30:35,42.805,6.029,CST-1368DR,5442,7594,14976,0.167,551
2021-05-20T14:33:37,42.805,6.029,CST-1368DR,5442,7595,14978,0.167,551
2021-05-20T14:36:39,42.805,6.029,CST-1368DR,5443,7594,14975,0.168,551
2021-05-20T14:39:40,42.805,6.029,CST-1368DR,5443,7595,14975,0.168,551
2021-05-20T14:42:42,42.805,6.029,CST-1368DR,5442,7595,14978,0.167,551
2021-05-20T14:45:43,42.805,6.029,CST-1368DR,5442,7594,14976,0.167,551
2021-05-20T14:48:45,42.805,6.029,CST-1368DR,5442,7594,14977,0.167,551
2021-05-20T14:51:47,42.805,6.029,CST-1368DR,5442,7595,14978,0.167,551
2021-05-20T14:54:48,42.805,6.029,CST-1368DR,5442,7594,14977,0.167,551
2021-05-20T14:57:50,42.805,6.029,CST-1368DR,5442,7594,14977,0.167,551
2021-05-20T15:00:51,42.805,6.029,CST-1368DR,5442,7593,14975,0.168,551
2021-05-20T15:03:53,42.805,6.029,CST-1368DR,5442,7592,14973,0.168,551
2021-05-20T15:06:54,42.805,6.029,CST-1368DR,5442,7594,14976,0.167,551
2021-05-20T15:09:56,42.805,6.029,CST-1368DR,5442,7593,14975,0.168,551
2021-05-20T15:12:58,42.805,6.029,CST-1368DR,5442,7594,14977,0.167,551
2021-05-20T15:15:59,42.805,6.029,CST-1368DR,5442,7594,14976,0.167,551
2021-05-20T15:19:01,42.805,6.029,CST-1368DR,5442,7594,14977,0.167,551
2021-05-20T15:22:02,42.805,6.029,CST-1368DR,5442,7594,14977,0.167,551
2021-05-20T15:25:04,42.805,6.029,CST-1368DR,5442,7594,14977,0.167,551
2021-05-20T15:28:05,42.805,6.029,CST-1368DR,5442,7594,14977,0.167,551
2021-05-20T15:31:07,42.805,6.029,CST-1368DR,5442,7593,14975,0.168,551
2021-05-20T15:34:09,42.805,6.029,CST-1368DR,5442,7594,14977,0.167,551
2021-05-20T15:37:10,42.805,6.029,CST-1368DR,5442,7595,14978,0.167,551
2021-05-20T15:40:12,42.805,6.029,CST-1368DR,5442,7594,14977,0.167,551
2021-05-20T15:43:13,42.805,6.029,CST-1368DR,5442,7595,14978,0.167,551
2021-05-20T15:46:15,42.805,6.029,CST-1368DR,5442,7594,14976,0.167,551
2021-05-20T15:49:17,42.805,6.029,CST-1368DR,5442,7594,14976,0.167,551
2021-05-20T15:52:18,42.805,6.029,CST-1368DR,5442,7594,14977,0.167,551
2021-05-20T15:55:20,42.805,6.029,CST-1368DR,5442,7594,14977,0.167,551
2021-05-20T15:58:21,42.805,6.029,CST-1368DR,5442,7593,14974,0.168,551
2021-05-20T16:01:23,42.805,6.029,CST-1368DR,5442,7594,14977,0.167,551
2021-05-20T16:04:24,42.805,6.029,CST-1368DR,5442,7594,14977,0.167,551
2021-05-20T16:07:26,42.805,6.029,CST-1368DR,5442,7594,14977,0.167,551
2021-05-20T16:10:28,42.805,6.029,CST-1368DR,5442,7594,14976,0.167,551
2021-05-20T16:13:29,42.805,6.029,CST-1368DR,5442,7595,14978,0.167,551
2021-05-20T16:16:31,42.805,6.029,CST-1368DR,5442,7595,14978,0.167,551
2021-05-20T16:19:32,42.805,6.029,CST-1368DR,5442,7592,14973,0.168,551
2021-05-20T16:22:34,42.805,6.029,CST-1368DR,5442,7594,14977,0.167,551
2021-05-20T16:25:35,42.805,6.029,CST-1368DR,5442,7593,14975,0.168,551
2021-05-20T16:28:37,42.805,6.029,CST-1368DR,5442,7594,14977,0.167,551
2021-05-20T16:31:39,42.805,6.029,CST-1368DR,5442,7594,14977,0.167,551
2021-05-20T16:34:40,42.805,6.029,CST-1368DR,5442,7594,14976,0.167,551
2021-05-20T16:37:42,42.805,6.029,CST-1368DR,5442,7594,14977,0.167,551
2021-05-20T16:40:43,42.805,6.029,CST-1368DR,5442,7594,14976,0.167,551
2021-05-20T16:43:45,42.805,6.029,CST-1368DR,5442,7595,14978,0.167,551
2021-05-20T16:46:47,42.805,6.029,CST-1368DR,5442,7593,14975,0.168,550
2021-05-20T16:49:48,42.805,6.029,CST-1368DR,5442,7594,14976,0.167,551
2021-05-20T16:52:50,42.805,6.029,CST-1368DR,5442,7593,14974,0.168,551